Weather History for Bishop, CA

Change the Weather History Date:

Tuesday, October 8, 2013

  Actual Average Record
Temperature  
Mean Temperature 56 °F 60 °F  
Max Temperature 78 °F 79 °F 95 °F (1996)
Min Temperature 33 °F 40 °F 29 °F (2007)
Degree Days  
Heating Degree Days 9 6  
Month to date heating degree days 65 38  
Since 1 July heating degree days 121 81  
Cooling Degree Days 0 0  
Month to date cooling degree days 0 7  
Year to date cooling degree days 1337 1103  
Growing Degree Days 6 (Base 50)    
Moisture  
Dew Point 11 °F    
Average Humidity 23    
Maximum Humidity 38    
Minimum Humidity 7    
Precipitation  
Precipitation 0.00 in 0.01 in 0.10 in (1945)
Month to date precipitation 0.00 0.07  
Year to date precipitation 1.11 3.63  
Snow  
Snow 0.00 in 0.00 in - ()
Month to date snowfall 0.0 0.0  
Since 1 July snowfall 0.0 0.0  
Since 1 September snowfall 0.0 0.0  
Snow Depth 0.00 in    
Sea Level Pressure  
Sea Level Pressure 29.74 in    
Wind  
Wind Speed 8 mph (NNW)    
Max Wind Speed 18 mph    
Max Gust Speed 24 mph    
Visibility 10 miles    
Events      
T = Trace of Precipitation, MM = Missing Value Source: NWS Daily Summary

Daily Weather History Graph

Daily Weather History Graph

Search for Another Location

Airport:

Trip Planner

Search our weather history database for the weather conditions in past years. The results will help you decide how hot, cold, wet, or windy it might be!

Date:

Astronomy

Oct. 08, 2013 Rise Set
Actual Time 6:55 AM PDT 6:25 PM PDT
Civil Twilight 6:29 AM PDT 6:51 PM PDT
Nautical Twilight 5:58 AM PDT 7:22 PM PDT
Astronomical Twilight 5:28 AM PDT 7:52 PM PDT
Moon 10:49 AM PDT (10/8) 9:11 PM PDT (10/8)
Length of Visible Light 12h 22m
Length of Day
11h 30m
Waxing Crescent, 17% of the Moon is Illuminated
Oct 8
Waxing Crescent
Oct 11
First Quarter
Oct 18
Full
Oct 26
Last Quarter
Nov 3
New

Hourly Weather History & Observations

Time (PDT) Temp. Windchill Dew Point Humidity Pressure Visibility Wind Dir Wind Speed Gust Speed Precip Events Conditions
12:56 AM 39.9 °F 34.5 °F 9.0 °F 28% 29.87 in 10.0 mi NNW 8.1 mph - N/A   Clear
1:56 AM 39.0 °F 34.8 °F 8.1 °F 28% 29.87 in 10.0 mi North 5.8 mph - N/A   Clear
2:56 AM 39.0 °F 34.8 °F 8.1 °F 28% 29.85 in 10.0 mi NNW 5.8 mph - N/A   Clear
3:56 AM 37.9 °F 35.5 °F 8.1 °F 29% 29.85 in 10.0 mi NNW 3.5 mph - N/A   Clear
4:56 AM 34.0 °F 28.0 °F 9.0 °F 35% 29.84 in 10.0 mi North 6.9 mph - N/A   Clear
5:56 AM 37.9 °F 33.5 °F 10.0 °F 32% 29.84 in 10.0 mi NW 5.8 mph - N/A   Clear
6:56 AM 37.9 °F 35.5 °F 10.9 °F 33% 29.86 in 10.0 mi West 3.5 mph - N/A   Clear
7:56 AM 36.0 °F 32.1 °F 12.0 °F 37% 29.90 in 10.0 mi North 4.6 mph - N/A   Clear
8:56 AM 54.0 °F - 15.1 °F 22% 29.88 in 10.0 mi Calm Calm - N/A   Clear
9:56 AM 66.0 °F - 16.0 °F 15% 29.86 in 10.0 mi Variable 3.5 mph - N/A   Clear
10:56 AM 72.0 °F - 14.0 °F 11% 29.83 in 10.0 mi NNW 12.7 mph 18.4 mph N/A   Clear
11:56 AM 72.0 °F - 8.1 °F 8% 29.79 in 10.0 mi Variable 3.5 mph - N/A   Clear
12:56 PM 73.9 °F - 8.1 °F 8% 29.76 in 10.0 mi East 5.8 mph - N/A   Clear
1:56 PM 73.9 °F - 5.0 °F 7% 29.71 in 10.0 mi Calm Calm - N/A   Clear
2:56 PM 75.9 °F - 6.1 °F 7% 29.66 in 10.0 mi SSW 10.4 mph - N/A   Clear
3:56 PM 77.0 °F - 9.0 °F 7% 29.63 in 10.0 mi South 10.4 mph 19.6 mph N/A   Clear
4:56 PM 73.9 °F - 6.1 °F 7% 29.63 in 10.0 mi SSE 16.1 mph 23.0 mph N/A   Clear
5:56 PM 71.1 °F - 6.1 °F 8% 29.61 in 10.0 mi SSE 17.3 mph - N/A   Clear
6:56 PM 68.0 °F - 8.1 °F 10% 29.62 in 10.0 mi SSE 15.0 mph - N/A   Clear
7:56 PM 66.9 °F - 10.0 °F 11% 29.62 in 10.0 mi SSW 15.0 mph - N/A   Clear
8:56 PM 63.0 °F - 17.1 °F 17% 29.61 in 10.0 mi North 10.4 mph - N/A   Clear
9:56 PM 61.0 °F - 16.0 °F 17% 29.57 in 10.0 mi North 4.6 mph - N/A   Clear
10:56 PM 59.0 °F - 16.0 °F 19% 29.55 in 10.0 mi WNW 6.9 mph - N/A   Clear
11:56 PM 55.0 °F - 17.1 °F 23% 29.54 in 10.0 mi NE 8.1 mph - N/A   Clear